Погода Сегян-Кюель

Погода Сегян-Кюель : погода сейчас, прогноз погоды и архив. Всё, что Вы хотите узнать о погоде Сегян-Кюель!

Поиск расширенной информации на нашем сайте:

Другие новости

Новости СМИ2

Главная страница сайта

Новости сайта

03.07.2017

Напоминаем, что на нашем специализированном сайте Метеоцентр.Азия вы можете получить высокодетализированные автоматические прогнозы погоды по пунктам России, СНГ и мира в авиационном формате (включающие направление и скорость ветра, видимость, явления погоды, количество и форму облачности, нижнюю и верхнюю границу облачности).

Рекомендуем: недорогая финская сауна

Погода Сегян-Кюель - сегодня

Время (UTC), дата Ветер
(°,м/с) 
Видим.   Явления Облачность Т
(°С)
Тd
(°С)
f(%) Тe
(°С)
Pmin
(гПа)
dP
(гПа)
Po
(мм)
O2
(г/м3)
Тmin Tmax R s Состояние
почвы
12 14.08.18 270 (З) 20000 м    3/0 верхняя 
[Ci fib]
+16.2 +12.6 79 +23  1017.7  0.3  745  281    +27.2       
15 14.08.18 тихо ()   20000 м    3/0 верхняя 
[Ci fib]
+8.2 +8.2 100 +8  1019.4  0.9  746  290           
18 14.08.18 тихо ()   20000 м    ясно 
+5 +5 100 +5  1020.3  0.6  746  294           
21 14.08.18 тихо ()   20000 м    ясно 
+4.8 +3.8 93 +5  1020.6  0.3  746  295           
00 15.08.18 тихо ()   20000 м    8/0 средняя, верхняя 
[Ac trans|Ci fib]
+17 +10.2 64 +19  1019.6  0.1  746  281  +2.7        сухая 
03 15.08.18 120 (ЮВ) 20000 м    4/0 средняя, верхняя 
[Ac trans|Ci fib]
+23.5 +14.2 56 +31  1017.8  -1.2  745  274           
06 15.08.18 190 (Ю) 20000 м    10/4 1000 м средняя, верхняя 
[Sc|Ac trans|Ci fib]
+25.5 +10 38 +27  1015.9  -1.7  744  272           
09 15.08.18 210 (ЮЗ) 20000 м    10/4 1000 м средняя, верхняя 
[Sc|Ac trans|Ci fib]
+24.8 +7.1 32 +25  1015.1  -0.8  743  273           
12 15.08.18 тихо ()   20000 м    10/8 1000 м средняя, верхняя 
[Sc|Ac trans|Ci fib]
+17.2 +14.1 82 +25  1015.9  0.2  744  279    +26.2       
15 15.08.18 тихо ()   20000 м    10/8 1000 м средняя, верхняя 
[Sc|Ac trans|Ci fib]
+11.4 +11 97 +14  1016.2  -0.2  743  285           
18 15.08.18 тихо ()   20000 м    10/8 1000 м средняя, верхняя 
[Sc|Ac trans|Ci fib]
+10.9 +9.9 94 +12  1015.8  -0.5  743  286           
21 15.08.18 тихо ()   20000 м    10/3 1000 м средняя 
[Sc|As op]
+11.6 +10 90 +13  1015.3  -0.4  743  285           
03 16.08.18 130 (ЮВ) 20000 м    10/0 средняя, верхняя 
[Ac trans|Cs]
+21 +10.4 51 +23  1011.2  -2.1  740  275           
06 16.08.18 110 (В) 20000 м    10/5 1000 м кучево-дожд., средняя, верхняя 
[Cb cap|Ac trans|Cs]
+20.8 +10.1 50 +22  1009.7  -1.5  739  275           
09 16.08.18 090 (В) 20000 м    10/8 1000 м кучево-дожд., средняя 
[Cb cap|As trans]
+20.4 +10.7 54 +23  1008.2  -1.5  738  275           
15 16.08.18 080 (В) 20000 м    10/10 1000 м кучево-дожд. 
[Cb cap]
+18.4 +10.2 59 +22  1007.4  -0.6  737  277           
18 16.08.18 030 (СВ) 20000 м    10/8 1000 м кучево-дожд., средняя 
[Cb cap|As op]
+16 +11.2 73 +20  1006.6  -0.9  737  278           
21 16.08.18 060 (СВ) 20000 м    10/8 1000 м средняя, верхняя 
[Sc|Ac trans|Ci fib]
+17.3 +11.2 67 +21    -0.5  736  277           
00 17.08.18 040 (СВ) 20000 м    10/8 1000 м средняя, верхняя 
[Sc|Ac trans|Ci fib]
+17.7 +12.3 71 +24  1005.9  -0.1  736  276  +15.5        сухая 
03 17.08.18 090 (В) 20000 м    10/3 1000 м средняя, верхняя 
[Sc|Ac trans|Ci fib]
+23.8 +11.2 45 +27  1004.4  -1  736  271           
06 17.08.18 110 (В) 20000 м    9/5 1000 м средняя, верхняя 
[Sc|Ac trans|Ci fib]
+24.2 +8.6 37 +24  1003.3  -1.1  735  270           
09 17.08.18 110 (В) 20000 м    10/8 1000 м средняя, верхняя 
[Sc|Ac trans|Ci fib]
+23.6 +13.1 52 +30  1003.5  0.2  735  270           
15 17.08.18 тихо ()   20000 м    10/4 1000 м средняя, верхняя 
[Sc|Ac trans|Ci fib]
+16 +13.9 87 +23  1004.6  -0.2  735  277           
18 17.08.18 тихо ()   20000 м  в посл. час ливневой дождь  10/8 600 м кучево-дожд., средняя, верхняя 
[Cb cap|Ac trans|Ci fib]
+14.3 +13.8 97 +21  1005.5  0.8  736  279           
21 17.08.18 010 (С) 20000 м    10/8 600 м кучево-дожд., средняя, верхняя 
[Cb cap|Ac trans|Ci fib]
+13.4 +12.7 96 +20  1005.3  -0.3  736  280           
Время (UTC), дата Ветер
(°,м/с) 
Видим.   Явления Облачность Т
(°С)
Тd
(°С)
f(%) Тe
(°С)
Pmin
(гПа)
dP
(гПа)
Po
(мм)
O2
(г/м3)
Тmin Tmax R s Состояние
почвы

Для получения пояснительной информации подведите курсор к названию столбца.

ПОГОДА Сегян-Кюель - архив

Всё, что Вы хотите узнать о погоде Сегян-Кюель - удобно и подробно!

Выберите нужную дату (начиная с 1 января 2015* года) и нажмите кнопку "Найти".
Будут отображены архивные сводки погоды по пункту Сегян-Кюель, начиная с указанной даты.


Отображать данные в формате CSV (для использования в таблицах Excel)


Внимание! Наш архив погоды предназначен исключительно для личного некоммерческого использования в познавательных целях. Если Вам необходимы официальные справки о состоянии погоды (для производственных, юридических, коммерческих и т.п. целей), обращайтесь в органы Росгидромета.

*Примечание: данная дата относится к архиву по метеостанциям СССР (Россия, СНГ, Балтия).
Архив по метеостанциям Зарубежной Европы и Азии (кроме Китая) хранится 10 дней, по другим регионам земного шара (Китай, Африка, Америка, Австралия, Океания) - 1 день.

Сегян-Кюель - район местоположения метеостанции


Название, широта, долгота, высота метеостанции:
Сегян-Кюель 64.00°ш. 130.30°д. 211 м над ур. моря [Российская Федерация]

Дополнительная информация

В oтличие oт бoльшинства пoгoдных сайтoв мы публикуем пoдрoбную метеoинфoрмацию в детальнoм прoфессиoнальнoм фoрмате.

Характеристики температуры и влажнoсти вoздуха измеряются на высoте 2 м в тени вдали oт зданий и деревьев.
Скoрoсть ветра измеряется на высoте 10 м (на урoвне рoста челoвека скoрoсть ветра ниже в 1.5-2 раза). Если метеoстанция нахoдится в гoрoде или в лесу, тo скoрoсть ветра занижена на 2-4 м/с пo сравнению с oткрытым местoм. Скoрoсть ветра над акватoриями крупных рек и oзёр, а также на вершинах хoлмoв на 2-5 м/с выше, чем в oбычных услoвиях.
Атмoсфернoе давление в разных тoчках местнoсти мoжет значительнo oтличаться oт давления на метеoстанции, в зависимoсти oт услoвий рельефа (при пoдъёме на 10 м давление пoнижается примернo на 1 мм рт.ст.).